Hourly Data Report for May 20, 2003

TORONTO CITY
ONTARIO

43°40'00.000" N
79°24'00.000" W
112.50 m
6158355
71508
XTO

Download Data

Hourly Data (May 2003)
Hourly Data Report for May 20, 2003
TIME
LST
Temp Definition
°C
Dew Point Definition
°C
Rel Hum Definition
%
Precip. Amount Definition
mm

Wind Dir Definition
10's deg

Wind Spd Definition
km/h
Visibility Definition
km
Stn Press Definition
kPa
Hmdx Definition


Wind Chill Definition


Weather Definition


00:00 12.6 6.2 65   LegendMM LegendMM LegendMM 100.78     LegendNANA
01:00 13.1 5.5 60   LegendMM LegendMM LegendMM 100.76     LegendNANA
02:00 13.3 5.7 60   LegendMM LegendMM LegendMM 100.72     LegendNANA
03:00 14.2 5.8 57   LegendMM LegendMM LegendMM 100.70     LegendNANA
04:00 15.3 6.6 56   LegendMM LegendMM LegendMM 100.67     LegendNANA
05:00 13.6 6.9 64   LegendMM LegendMM LegendMM 100.65     LegendNANA
06:00 14.1 7.6 65   LegendMM LegendMM LegendMM 100.64     LegendNANA
07:00 14.9 7.7 62   LegendMM LegendMM LegendMM 100.62     LegendNANA
08:00 15.8 8.3 61   LegendMM LegendMM LegendMM 100.59     LegendNANA
09:00 15.9 8.2 60   LegendMM LegendMM LegendMM 100.53     LegendNANA
10:00 16.6 8.8 60   LegendMM LegendMM LegendMM 100.47     LegendNANA
11:00 17.5 8.6 56   LegendMM LegendMM LegendMM 100.43     LegendNANA
12:00 14.2 9.6 74   LegendMM LegendMM LegendMM 100.43     LegendNANA
13:00 13.6 12.2 91   LegendMM LegendMM LegendMM 100.34     LegendNANA
14:00 14.1 12.7 91   LegendMM LegendMM LegendMM 100.29     LegendNANA
15:00 14.2 12.9 92   LegendMM LegendMM LegendMM 100.22     LegendNANA
16:00 13.3 12.4 94   LegendMM LegendMM LegendMM 100.20     LegendNANA
17:00 13.7 13.4 98   LegendMM LegendMM LegendMM 100.19     LegendNANA
18:00 13.5 13.2 98   LegendMM LegendMM LegendMM 100.21     LegendNANA
19:00 11.5 9.8 89   LegendMM LegendMM LegendMM 100.37     LegendNANA
20:00 9.9 7.2 83   LegendMM LegendMM LegendMM 100.48     LegendNANA
21:00 9.4 6.0 79   LegendMM LegendMM LegendMM 100.57     LegendNANA
22:00 9.5 6.1 79   LegendMM LegendMM LegendMM 100.64     LegendNANA
23:00 9.7 6.4 80   LegendMM LegendMM LegendMM 100.71     LegendNANA

Notes on Data Quality.

Legend

  • E = Estimated
  • M = Missing
  • NA = Not Available*
  • [empty] = Indicates an unobserved value
Date modified: